Location: D�gu�n�da
(14.8487°N, 3.1460°W)
Time: 18:53:54
(UTC+00:00)

Daily predictions for brighter satellites

Satellite Brightness Start Highest point End
(mag) Time Altitude Azimuth Time Altitude Azimuth Time Altitude Azimuth
Cosmos 1689 Rocket 2.4 17:57:37 10° NNE 18:00:25 43° E 18:03:12 10° S
Milstar 3 4.0 17:51:27 10° WNW 18:01:08 52° SSW 18:07:44 10° SE
ERS-2 3.3 17:58:48 10° N 18:02:18 46° WNW 18:05:48 10° SSW
Cosmos 1500 Rocket 3.9 17:58:10 10° N 18:02:34 73° W 18:06:59 10° S
AQUARIUS 4.1 17:58:45 10° SSE 18:03:13 77° ENE 18:07:42 10° N
SAR-Lupe-1 4.1 18:04:12 10° NNE 18:07:47 89° W 18:11:22 10° SSW
H-2A R/B 4.5 18:05:54 10° SSW 18:10:01 36° W 18:14:04 10° NNW
CZ-4B R/B 3.6 18:07:34 10° NNW 18:10:11 25° WNW 18:12:51 10° SW
CORIOLIS 4.1 18:05:30 10° SSE 18:10:52 84° ENE 18:16:16 10° N
Okean O Rocket 2.0 18:11:04 10° S 18:15:22 70° WSW 18:19:41 10° NNW
H-2A R/B 3.9 18:15:48 10° E 18:16:35 11° E 18:16:35 11° E
Cosmos 1933 3.6 18:17:37 10° S 18:21:36 70° W 18:25:35 10° N
COSMO-SKYMED 1 3.4 18:18:42 10° N 18:22:54 52° WNW 18:27:07 10° SSW
SL-24 R/B 4.0 18:19:27 10° N 18:23:10 67° WNW 18:26:46 10° SSW
USA 81 4.5 18:20:25 10° NNE 18:25:20 39° E 18:30:14 10° SSE
Cosmos 773 Rocket 4.1 18:23:01 10° SSW 18:28:12 82° WNW 18:33:27 10° N
Sakura Rocket 3.1 18:24:50 10° WSW 18:28:53 85° NNW 18:32:47 18° ENE
Ariane H10 3.4 18:27:46 10° SW 18:29:38 19° SSE 18:32:36 10° ESE
Intelsat 5-3 Rocket 3.8 18:29:51 10° SSW 18:31:41 14° SSE 18:33:03 10° SE
ATLAS 2AS CENTAUR RB 1.0 18:30:29 10° WSW 18:32:20 43° S 18:34:01 18° ESE
Helios 1A Rocket 3.9 18:30:41 10° SE 18:33:54 23° ENE 18:37:08 10° NNE
Sich 1 3.0 18:31:56 10° N 18:36:17 88° W 18:40:35 10° S
Cosmos 1151 Rocket 3.7 18:33:13 10° SSW 18:37:28 57° W 18:41:41 10° N
Cosmos 2366 rocket 4.3 18:32:39 10° NNE 18:38:23 41° E 18:44:06 10° SSE
Meteor 1-26 Rocket 4.4 18:33:45 10° S 18:39:38 83° W 18:45:39 10° N
Cosmos 1328 Rocket 4.0 18:36:10 10° SSW 18:40:24 62° W 18:44:40 10° N
SL-16 R/B 3.8 18:36:51 10° SW 18:41:53 33° WNW 18:46:57 10° N
Cosmos 546 4.5 18:38:06 10° SW 18:41:54 79° SE 18:43:55 26° NE
Cosmos 1782 2.7 18:39:10 10° S 18:43:06 88° E 18:47:02 10° N
USA 281 3.8 18:38:23 10° SE 18:44:03 32° ENE 18:49:44 10° N
X-37B 3.1 18:42:23 10° W 18:44:30 17° NW 18:46:35 10° N
Cosmos 489 Rocket 4.5 18:39:43 10° SSW 18:45:55 85° WNW 18:52:07 10° NNE
Cosmos 1666 Rocket 3.4 18:46:31 10° N 18:50:56 81° E 18:55:22 10° S
Feng Yun 1-1 Rocket 4.5 18:46:06 10° S 18:52:01 79° WSW 18:57:50 10° NNW
CZ-2C R/B 3.3 18:47:10 10° SSE 18:52:25 48° ENE 18:57:23 10° N
DELTA 2 R/B(2) 4.4 18:49:10 10° NW 18:52:33 78° NE 18:54:35 28° ESE
CENTAUR R/B 3.5 18:49:23 10° SSE 18:52:40 19° ESE 18:52:40 19° ESE
GPS 2-18 Rocket1 3.3 18:54:22 10° WNW 18:57:54 45° N 18:58:07 45° NNE
Meteosat 1 Rocket2 4.1 18:53:55 10° NW 18:58:08 27° NNE 18:58:26 27° NNE
Cosmos 2341 Rocket 4.5 18:53:41 10° NNW 18:59:53 63° W 19:06:09 10° S
NOSS 3-2 (A) 3.2 18:57:44 10° S 19:02:55 55° ESE 19:04:39 38° ENE
MOS 1 Rocket 4.3 18:58:40 10° N 19:03:57 54° WNW 19:09:07 10° SSW
CZ-4 R/B 1.1 19:01:40 10° SSE 19:05:28 72° ENE 19:07:25 28° N
Nadezhda 3 Rocket 3.9 19:00:30 10° S 19:06:44 66° E 19:12:12 14° NNE
Cosmos 1680 Rocket 4.4 19:02:19 10° SSE 19:05:59 30° ESE 19:05:59 30° ESE
STPSAT 2 (USA 217) 4.4 19:05:18 10° S 19:09:44 68° ESE 19:10:23 59° NE
CZ-2C R/B 2.6 19:10:24 47° ENE 19:11:06 51° E 19:16:06 10° S
CZ-2D R/B 4.2 19:08:45 10° S 19:12:24 47° W 19:16:03 10° NNW
USA 238 DEB 3.5 19:10:11 10° SSW 19:16:35 66° ESE 19:18:37 44° NE
USA 238 3.5 19:10:17 10° SSW 19:16:41 66° ESE 19:18:41 44° NE
Meteor 1-20 Rocket 4.5 19:12:27 10° NNW 19:18:15 71° W 19:23:59 10° S
Cosmos 2228 Rocket 3.0 19:14:50 10° S 19:19:24 84° E 19:19:57 69° NNE
Cosmos 1812 3.3 19:16:47 10° S 19:19:33 46° S 19:19:33 46° S
Cosmos 1633 Rocket 4.1 19:18:17 10° NNW 19:22:25 45° W 19:26:33 10° SSW
H-2A R/B (2) 3.6 18:54:45 10° WNW 19:22:28 42° N 19:24:29 35° NNE
CZ-3B R/B 4.5 19:14:26 10° WSW 19:22:28 77° SSE 19:33:15 35° ENE
Cosmos 1818 3.5 19:17:20 10° NNW 19:22:47 85° WSW 19:28:12 10° SSE
Cosmos 2278 Rocket 3.9 19:22:08 10° NW 19:27:05 32° WSW 19:32:03 10° SSW
YAOGAN 1 3.1 19:28:21 10° S 19:32:35 58° W 19:34:22 32° NW
Intelsat 5-2 Rocket 3.9 19:20:33 10° WNW 19:33:27 68° NNE 19:33:53 66° NE
Cosmos 1603 4.4 19:30:55 10° SSW 19:36:22 50° WNW 19:38:54 29° NNW
Cosmos 158 Rocket 3.9 19:31:22 10° SSW 19:36:20 79° WSW 19:36:20 79° WSW
Okean-O 3.9 19:34:31 10° S 19:38:37 39° W 19:42:45 10° NNW
GPS 2-15 Rocket1 4.4 19:37:24 10° WNW 19:40:34 35° NW 19:40:34 35° NW
H-10 deb 3.7 19:38:14 10° W 19:47:09 33° SSW 19:47:30 33° S
Cosmos 1943 4.1 19:43:07 10° SW 19:48:26 44° WNW 19:50:01 35° NNW
Hubble Space Telescope 3.3 19:46:22 10° SSW 19:47:23 16° SSW 19:47:23 16° SSW
Gblst 52 Del rocket 4.4 19:43:13 10° SW 19:49:32 78° SSW 19:49:32 78° SSW
DELTA 2 R/B (1) 4.3 19:46:22 10° NW 19:50:12 46° NW 19:50:12 46° NW
H-2A R/B 2.8 19:50:53 10° S 19:56:10 53° W 19:57:12 46° WNW
Centaur AC-72 4.3 20:53:48 10° W 21:02:03 41° W 21:02:03 41° W
